DEIMOS-2

Last updated on Sun Oct 19 2025 00:02:30 GMT+0000 (Coordinated Universal Time)

1 40013U 14033D 25291.28000207 .00003781 00000+0 37261-3 0 9997 2 40013 97.6121 168.9077 0002410 73.7171 286.4313 14.92606003601620
UTC large
Height (km)
Speed (km/s)
/
Latitude / Longitude
Inclination (degrees)
Orbital Period (minutes)
Azimuth
Elevation
Range (km)
Doppler Factor

Next 0 passes for location: London (51.5072 / 0.1276)

Sorry there are no passes over London.